Flag for China Weather past 2 weeks in Chongqing, Chongqing Municipality, China

Now
45 °F

Passing clouds.


Feels Like: 45 °F
Forecast: 47 / 60 °F
Wind: 1 mph from Southeast

Location: Chongqing Airport

Current Time: Mar 5, 2015 at 6:46:43 AM

Latest Report: Mar 5, 2015 at 6:00 AM


Visibility: N/A

Pressure: 30.07 "Hg

Humidity: 71%

Dew point: 36 °F

Location of ChongqingLocation

Historic Weather in Chongqing — Graph

°F

Chongqing temperature yesterday

Maximum temperature yesterday: 54 °F (at 11:00 AM)
Minimum temperature yesterday: 50 °F (at 1:00 AM)
Average temperature yesterday: 51 °F

Past Weeks' High & Low Weather Summary

 TemperatureHumidityPressure
High70 °F (Feb 18, 3:00 PM)94% (Feb 22, 9:00 AM)30.42 "Hg (Feb 22, 9:00 AM)
Low43 °F (Feb 28, 7:00 PM)44% (Mar 4, 8:00 PM)29.74 "Hg (Feb 19, 5:00 PM)
Average54 °F74%29.98 "Hg
* Reported Feb 18 5:00 AM — Mar 5 5:00 AM, Chongqing, Weather by CustomWeather, © 2015

Note: Actual official high and low records may vary slightly from our data, if they occured in-between our weather recording intervals... More about our weather records

Advertising

Chongqing weather history for previous 24 hours

 ConditionsComfort  
Time TempWeatherWind HumidityBarometerVisibility
5:00 AM
Thu, Mar 5
45 °FPassing clouds.6 mph76%30.07 "HgN/A
4:00 AM45 °FPassing clouds.6 mph76%30.07 "HgN/A
3:00 AM46 °FPassing clouds.6 mph71%30.07 "HgN/A
2:00 AM46 °FPassing clouds.8 mph66%30.07 "HgN/A
1:00 AM48 °FPassing clouds.6 mph58%30.07 "HgN/A
12:00 AM50 °FPassing clouds.3 mph50%30.04 "HgN/A
11:00 PM
Wed, Mar 4
50 °FPassing clouds.3 mph50%30.04 "HgN/A
10:00 PM50 °FPassing clouds.6 mph50%30.01 "HgN/A
9:00 PM52 °FPassing clouds.8 mph47%29.98 "HgN/A
8:00 PM52 °FPassing clouds.8 mph44%29.92 "HgN/A
6:00 PM52 °FScattered clouds.8 mph47%29.89 "HgN/A
5:00 PM52 °FScattered clouds.8 mph47%29.89 "HgN/A
4:00 PM54 °FSunny.8 mph47%29.89 "Hg10 mi
3:00 PM54 °FPassing clouds.8 mph47%29.89 "HgN/A
2:00 PM54 °FPassing clouds.6 mph47%29.92 "HgN/A
1:00 PM54 °FOvercast.6 mph47%29.95 "HgN/A
12:00 PM54 °FOvercast.6 mph51%29.98 "HgN/A
11:00 AM54 °FPassing clouds.8 mph51%30.01 "HgN/A
10:00 AM50 °FPassing clouds.6 mph76%30.01 "HgN/A
9:00 AM50 °FPassing clouds.6 mph76%30.01 "HgN/A
8:00 AM50 °FSunny.8 mph76%29.98 "Hg10 mi
7:00 AM50 °FClear.8 mph71%29.95 "Hg10 mi
6:00 AM50 °FClear.6 mph71%29.92 "Hg10 mi
Weather by CustomWeather, © 2015

See weather overviewHow to use our weather pages